Wind_Speed
9 8 8 7 6 5 2 1 2 3 4 5 6 7 8 9 10 11 11 11 11 12 12 13 12 12 12 12 11 11 11 11 11 11 11 11 11 11 12 12 12 13 13 13 13 13 12 12 11
10 9 9 8 7 6 4 3 3 4 5 5 6 7 8 10 11 12 12 12 13 13 13 14 13 13 13 13 12 12 12 12 12 12 12 12 12 12 13 13 13 13 14 14 14 14 13 13 12
11 10 10 8 7 6 5 5 5 6 6 7 7 9 10 11 13 14 14 14 13 14 14 15 15 14 14 14 13 13 13 13 13 13 13 13 13 13 13 13 14 14 14 15 14 14 14 14 13
11 10 10 9 8 8 7 7 7 7 8 8 9 10 12 13 15 15 16 16 16 16 16 16 16 15 15 15 14 14 14 14 14 14 14 14 14 14 14 14 15 15 15 15 15 15 15 15 14
11 11 11 10 9 9 9 9 9 9 10 10 10 12 13 15 16 17 17 18 18 18 18 17 17 16 15 15 15 15 15 15 15 15 15 15 15 15 15 15 15 15 16 16 16 16 16 16 16
12 11 11 10 10 10 10 11 11 11 12 12 12 13 14 15 16 17 17 17 18 19 18 18 18 17 16 16 16 16 16 16 16 16 16 16 17 17 16 17 17 17 17 17 17 17 17 17 17
12 11 11 11 11 11 12 12 12 13 14 14 13 14 15 16 17 18 17 18 19 19 19 18 19 19 18 17 17 17 17 17 17 17 17 18 18 18 17 18 18 18 18 18 18 18 18 18 17
12 12 12 12 12 12 13 13 14 14 14 15 15 15 17 18 19 19 19 19 20 20 19 19 19 19 18 18 18 18 18 18 18 18 18 18 19 19 19 19 20 19 18 19 19 19 19 19 18
12 13 13 14 14 14 15 15 16 17 16 16 17 18 19 20 21 21 21 21 21 21 19 19 19 19 19 19 19 19 19 19 19 19 20 19 20 20 20 21 21 21 20 20 20 21 21 20 20
13 14 14 15 16 16 17 18 18 18 18 19 20 20 21 21 22 22 21 21 21 20 19 19 20 19 19 19 19 20 20 21 21 21 21 21 21 22 22 22 22 22 22 22 22 22 22 22 21
14 14 15 16 16 18 18 19 20 20 19 20 21 21 21 22 21 21 21 21 20 20 20 20 20 20 20 20 20 20 21 22 22 22 22 22 22 22 23 23 23 23 23 23 23 23 23 22 22
14 15 16 17 17 18 18 20 21 22 22 22 22 22 21 22 22 23 21 21 21 21 21 21 21 21 21 21 21 21 22 22 24 24 24 24 24 23 23 24 24 24 24 24 24 24 24 23 23
14 15 16 17 18 19 20 21 22 22 23 23 23 22 22 22 23 22 22 22 21 22 22 22 22 22 22 22 22 23 23 24 25 25 25 25 25 24 24 24 24 24 25 25 25 25 25 25 25
15 15 16 17 19 20 20 21 22 22 23 23 23 23 23 23 23 23 23 22 21 22 22 22 22 22 22 23 24 23 24 25 25 25 26 26 26 25 24 24 24 24 25 25 25 26 26 26 26
15 16 17 18 19 20 21 21 22 22 23 23 24 23 24 24 23 23 23 22 21 21 21 22 23 23 23 24 25 25 25 26 26 27 27 27 27 26 25 24 24 25 26 26 27 27 27 28 27
16 17 18 19 20 21 22 21 21 22 23 23 23 23 23 24 24 23 23 22 22 22 22 23 24 24 25 25 26 27 27 27 27 27 26 26 27 27 26 26 26 26 26 26 26 26 28 29 28
16 18 19 20 21 22 22 22 22 23 23 22 22 22 23 23 23 24 24 23 23 23 23 24 24 25 26 26 26 27 28 29 29 28 27 27 27 27 27 27 27 26 26 26 27 27 28 28 29
17 19 20 21 21 22 22 23 23 23 23 23 23 23 23 23 23 23 24 25 24 24 24 24 24 25 26 27 28 28 28 28 28 28 28 28 27 28 28 28 27 27 27 27 28 28 28 29 29
18 19 21 21 22 22 23 22 22 23 24 24 24 24 23 23 24 23 24 24 24 25 25 25 25 26 26 27 28 28 28 27 28 29 29 28 28 28 28 28 28 28 28 28 28 28 29 30 31
19 20 21 21 22 23 22 22 23 24 24 24 24 24 24 24 24 24 24 24 25 25 25 25 26 26 27 27 28 28 28 27 28 28 27 27 27 28 29 29 29 28 29 28 29 29 30 31 31
19 21 21 22 22 22 23 23 23 24 23 24 24 23 23 23 23 24 24 25 24 24 25 26 27 27 27 28 28 28 27 27 27 27 27 27 28 28 29 30 30 30 29 28 28 29 28 28 28
20 21 22 22 23 23 24 24 22 22 22 23 23 23 24 24 24 25 25 25 25 26 26 27 27 27 27 29 28 28 28 28 27 27 26 27 28 28 27 27 28 28 28 28 28 27 27 28 27
21 21 23 23 24 24 24 25 24 23 23 22 22 23 24 24 24 24 25 26 26 27 27 27 27 27 28 28 28 28 28 28 27 26 27 27 27 27 26 27 27 27 27 28 27 26 27 27 27
22 22 23 23 24 24 24 26 25 24 23 23 23 23 24 24 24 25 25 26 27 27 27 28 28 28 28 28 29 28 28 28 27 26 27 26 26 26 26 27 27 27 26 26 25 25 26 26 27
22 24 25 25 25 25 25 26 25 24 24 24 24 25 25 26 25 26 26 27 28 28 28 29 29 28 28 28 29 28 28 27 26 26 27 26 25 25 26 28 27 27 26 25 24 24 25 26 26
23 24 25 27 27 26 26 26 25 26 25 25 24 25 26 26 26 26 27 27 27 28 27 28 28 28 27 27 27 26 26 26 26 25 25 25 24 24 25 26 25 25 25 25 25 25 25 25 25
24 25 26 28 29 29 27 25 24 25 26 25 25 25 27 26 26 26 26 27 27 27 26 26 26 26 26 25 25 25 25 25 24 24 24 24 23 23 23 23 23 23 24 24 25 25 25 25 25
25 26 27 28 30 30 28 27 26 26 25 25 25 25 25 25 24 24 25 26 26 25 25 24 24 23 24 24 24 24 24 24 23 23 23 23 21 21 21 20 21 22 23 24 24 25 25 24 24
27 27 28 29 29 30 31 29 28 27 26 26 26 25 25 25 24 24 24 24 24 25 24 23 22 21 22 22 23 24 24 24 23 22 21 22 21 20 19 20 20 20 21 22 22 23 23 23 23
28 28 28 29 30 31 33 32 29 29 28 27 27 26 26 25 25 24 24 23 24 24 24 23 22 22 22 22 21 21 22 21 20 20 20 20 19 18 19 19 19 19 20 21 21 21 21 22 22
Wind_Direction
202 205 205 205 211 215 227 255 294 321 336 352 355 353 352 345 340 335 330 326 322 319 319 319 317 317 318 318 318 317 316 316 317 318 318 317 317 314 314 313 312 311 310 309 308 309 308 306 306
209 212 214 219 218 222 231 252 271 291 309 326 337 338 339 335 329 327 325 320 315 316 314 313 311 312 313 314 315 314 312 311 311 312 312 311 310 309 308 308 307 306 307 305 303 303 303 302 302
210 214 216 225 229 233 245 265 282 294 303 314 324 326 327 328 324 322 319 316 314 313 311 307 305 307 309 310 311 309 307 307 306 307 307 306 305 305 305 304 303 303 304 303 302 300 299 298 298
212 215 219 228 240 249 254 264 282 295 301 308 316 322 321 321 322 319 315 312 311 308 307 303 301 302 304 304 305 304 303 302 301 301 302 301 301 301 301 300 300 301 301 300 299 298 297 296 294
214 218 223 232 243 252 263 268 279 290 295 301 311 313 317 318 319 317 314 311 308 306 304 301 299 298 300 300 300 299 298 297 296 297 296 296 297 296 296 296 295 296 296 296 296 296 295 294 291
216 221 225 232 244 252 262 271 276 283 292 298 304 306 311 316 317 318 316 312 309 307 305 301 299 296 295 295 297 297 295 294 294 294 293 292 293 292 292 292 292 291 291 292 292 293 293 292 289
220 225 231 238 246 254 262 268 274 283 289 298 302 305 309 311 317 318 314 311 311 306 303 300 302 299 294 292 292 292 292 292 292 292 293 289 289 289 288 289 288 288 288 288 289 289 290 290 288
225 230 236 242 250 261 268 271 278 288 292 297 301 306 310 311 314 317 314 309 310 308 305 304 302 298 294 291 292 292 290 290 290 289 289 289 285 284 286 288 287 285 286 286 286 286 287 287 287
231 235 242 249 255 263 271 275 282 287 291 294 298 304 309 310 313 314 313 310 308 308 305 304 303 299 295 293 291 289 289 289 288 287 286 286 284 283 284 285 286 283 282 283 284 284 285 284 284
235 240 247 254 261 267 272 276 282 286 289 295 300 304 307 308 311 312 311 310 308 307 305 306 302 299 294 291 291 291 289 288 286 285 284 283 281 282 282 281 282 280 279 280 281 282 283 282 281
238 244 250 257 265 271 274 277 282 284 288 294 298 302 306 306 309 310 309 308 305 304 303 302 301 297 293 290 290 290 289 287 286 285 283 282 280 281 280 278 279 278 278 279 279 281 280 281 279
240 249 258 263 268 272 277 281 284 286 289 293 297 299 301 304 306 308 308 305 303 302 302 299 300 295 292 289 286 289 291 289 287 285 282 279 278 279 278 276 276 278 278 278 279 278 278 279 277
246 255 262 268 272 275 278 283 286 289 290 292 294 295 299 302 305 308 308 304 302 302 301 299 300 296 293 291 287 288 290 289 287 285 281 279 276 276 275 276 276 277 277 277 276 276 277 277 276
252 259 266 271 274 277 280 285 289 291 291 291 292 294 296 297 299 302 302 301 300 301 302 301 302 299 295 291 288 287 288 288 287 284 280 277 274 273 273 273 275 276 276 275 274 274 275 277 277
259 264 268 273 277 281 285 287 292 293 293 294 293 292 293 295 297 300 298 297 297 299 300 299 298 298 294 293 292 288 289 287 284 282 280 279 275 274 274 274 276 274 274 272 272 274 274 276 276
265 270 274 279 283 286 287 289 293 293 294 294 295 295 295 296 297 298 297 296 297 298 300 300 300 299 296 293 294 291 289 288 284 280 279 281 279 276 274 273 275 273 272 273 273 274 275 275 274
272 275 278 282 285 287 290 294 296 295 296 296 296 295 294 295 296 296 295 295 296 296 299 301 300 298 294 293 294 291 288 286 284 280 280 280 279 277 276 273 273 271 271 272 274 273 274 274 274
278 280 283 286 287 289 292 295 296 296 297 296 295 295 294 293 292 294 296 298 296 295 295 297 298 297 294 293 295 293 293 289 284 282 282 280 278 276 274 272 270 270 269 271 273 272 271 272 272
282 285 287 288 289 290 292 294 295 296 298 297 296 297 296 295 293 295 297 298 295 295 295 295 295 294 294 295 296 295 294 290 288 286 284 281 279 275 272 272 270 270 270 272 273 273 273 271 269
284 288 290 291 292 293 294 295 297 298 299 299 298 297 297 297 296 296 295 295 295 295 296 295 294 295 296 296 296 297 295 292 290 288 286 283 280 276 273 272 270 270 271 271 272 275 275 274 270
288 290 293 294 294 295 296 297 298 299 298 298 299 298 297 298 297 296 294 294 295 298 298 297 297 296 296 296 297 299 296 294 292 288 284 283 280 277 274 270 269 271 270 270 271 275 275 274 271
292 293 294 295 297 299 300 300 300 301 299 298 300 300 299 298 298 296 296 295 296 299 300 299 299 296 297 296 296 297 297 294 293 288 282 279 278 276 275 272 271 271 269 268 270 272 272 272 271
295 296 295 296 297 299 302 302 304 302 300 298 298 299 299 298 298 297 297 296 298 299 299 299 299 297 297 297 298 298 298 296 292 288 284 280 278 276 274 272 272 272 269 267 268 271 272 272 272
297 298 298 298 298 299 303 303 304 306 304 301 300 301 300 297 297 297 297 297 297 299 299 298 297 296 297 298 300 299 298 297 295 292 287 282 279 279 276 272 273 271 270 269 267 271 272 272 271
300 301 301 301 300 301 304 304 307 309 307 306 304 303 302 298 297 296 296 297 298 300 298 296 295 295 297 300 301 299 299 295 294 292 288 283 281 280 277 273 272 270 270 269 268 269 272 272 270
303 304 304 304 305 305 305 306 309 309 310 309 306 306 306 301 297 298 298 299 300 301 299 296 294 295 297 299 299 297 297 295 293 293 289 285 283 281 279 275 271 269 268 268 269 269 271 271 271
303 305 304 304 304 305 307 307 308 309 310 309 307 307 308 306 299 298 299 299 301 301 300 298 297 297 298 300 299 297 296 296 294 294 293 289 285 283 281 278 272 270 269 270 272 272 273 273 273
302 303 303 304 305 306 306 307 307 307 305 306 307 307 307 307 303 301 301 301 301 300 301 302 302 301 300 301 299 297 297 296 294 293 293 292 288 285 283 280 277 274 272 272 273 274 276 276 275
302 301 300 300 301 301 303 305 306 306 303 303 305 307 307 303 303 303 302 301 300 300 303 304 304 304 304 303 301 298 296 295 293 293 295 293 289 290 287 284 278 276 276 276 278 279 277 278 277
300 299 299 299 299 299 300 304 305 303 303 302 301 302 303 302 302 305 304 302 301 299 300 302 303 305 305 305 305 303 301 300 297 296 296 296 292 289 288 286 281 278 278 280 281 281 278 279 279
Height
5894 5895 5896 5898 5900 5901 5900 5901 5900 5900 5900 5900 5900 5900 5900 5900 5900 5902 5900 5898 5897 5896 5895 5894 5893 5892 5891 5889 5888 5887 5887 5886 5886 5885 5885 5885 5885 5884 5884 5883 5883 5882 5882 5881 5881 5880 5880 5879 5878
5893 5895 5897 5898 5899 5900 5901 5900 5900 5900 5900 5900 5900 5900 5899 5898 5898 5898 5897 5896 5895 5895 5894 5893 5892 5890 5889 5888 5887 5886 5885 5885 5884 5883 5883 5883 5883 5882 5882 5881 5880 5880 5880 5879 5879 5878 5878 5877 5877
5893 5894 5897 5898 5898 5899 5900 5900 5900 5899 5899 5899 5899 5899 5898 5898 5897 5897 5896 5895 5894 5893 5892 5891 5890 5888 5887 5886 5885 5884 5883 5883 5882 5882 5881 5881 5880 5880 5879 5878 5878 5878 5877 5877 5876 5876 5876 5875 5875
5893 5895 5896 5898 5897 5898 5899 5899 5899 5899 5899 5899 5898 5898 5897 5897 5896 5895 5894 5893 5892 5891 5890 5889 5888 5886 5885 5884 5883 5882 5881 5881 5880 5879 5879 5878 5878 5877 5876 5876 5875 5875 5875 5874 5874 5873 5873 5873 5873
5892 5894 5895 5896 5897 5897 5897 5898 5898 5898 5898 5898 5897 5896 5896 5895 5894 5893 5892 5891 5890 5889 5888 5886 5885 5884 5883 5882 5881 5880 5879 5878 5878 5877 5876 5876 5875 5874 5873 5873 5872 5872 5872 5871 5871 5870 5870 5870 5870
5892 5893 5895 5895 5896 5896 5896 5897 5897 5897 5897 5896 5896 5895 5894 5893 5892 5890 5889 5888 5887 5886 5885 5883 5882 5881 5880 5879 5878 5877 5876 5876 5875 5874 5874 5873 5872 5871 5871 5870 5869 5869 5868 5868 5868 5867 5867 5867 5867
5892 5893 5893 5895 5895 5895 5896 5895 5896 5896 5896 5895 5894 5893 5892 5891 5890 5889 5887 5886 5885 5883 5882 5880 5879 5878 5876 5875 5875 5874 5873 5873 5872 5871 5871 5870 5869 5868 5868 5867 5866 5865 5865 5864 5864 5864 5863 5863 5863
5891 5893 5893 5893 5894 5894 5894 5894 5894 5894 5894 5893 5892 5891 5890 5889 5887 5886 5885 5883 5882 5880 5878 5877 5875 5874 5873 5872 5872 5871 5870 5869 5868 5868 5867 5866 5865 5865 5864 5864 5863 5862 5861 5861 5860 5860 5860 5860 5859
5890 5892 5892 5892 5893 5893 5892 5892 5892 5891 5891 5890 5889 5889 5888 5886 5884 5883 5881 5880 5878 5877 5875 5873 5872 5871 5870 5868 5868 5867 5866 5865 5865 5864 5863 5862 5862 5861 5860 5860 5859 5858 5858 5857 5857 5856 5856 5855 5855
5889 5890 5891 5891 5891 5891 5891 5890 5890 5889 5888 5887 5886 5885 5884 5883 5882 5880 5878 5876 5875 5873 5872 5870 5868 5867 5866 5865 5864 5863 5862 5861 5860 5860 5859 5858 5857 5857 5856 5855 5854 5854 5853 5853 5853 5852 5852 5851 5851
5887 5889 5889 5889 5889 5889 5889 5888 5887 5886 5885 5885 5883 5882 5881 5879 5878 5877 5875 5873 5872 5870 5868 5866 5864 5863 5862 5861 5860 5859 5858 5857 5856 5855 5854 5853 5852 5852 5851 5850 5850 5849 5848 5848 5848 5847 5847 5846 5846
5887 5887 5887 5887 5887 5886 5886 5885 5884 5883 5883 5882 5880 5879 5878 5876 5874 5873 5871 5869 5868 5866 5864 5862 5860 5859 5857 5856 5855 5854 5853 5852 5851 5850 5849 5848 5847 5846 5846 5845 5844 5844 5843 5843 5842 5842 5841 5841 5841
5884 5885 5885 5885 5884 5884 5883 5882 5881 5880 5879 5878 5877 5875 5874 5872 5870 5869 5867 5865 5863 5861 5860 5858 5856 5854 5853 5852 5850 5849 5848 5847 5846 5845 5844 5843 5842 5841 5840 5839 5839 5839 5838 5837 5837 5836 5836 5836 5836
5883 5882 5882 5882 5881 5881 5880 5879 5878 5877 5875 5874 5873 5872 5870 5869 5866 5864 5863 5861 5859 5857 5855 5854 5851 5850 5848 5847 5845 5844 5843 5841 5840 5839 5838 5837 5836 5835 5834 5834 5833 5833 5832 5832 5831 5831 5830 5830 5830
5880 5881 5880 5879 5878 5877 5877 5876 5874 5873 5871 5870 5869 5867 5866 5864 5862 5860 5858 5856 5854 5852 5851 5849 5847 5845 5843 5841 5840 5838 5836 5835 5834 5832 5831 5830 5830 5829 5828 5828 5827 5827 5826 5825 5825 5825 5824 5824 5824
5878 5878 5878 5877 5876 5874 5874 5872 5871 5869 5868 5866 5864 5863 5861 5859 5857 5856 5853 5851 5849 5848 5846 5844 5842 5840 5838 5836 5834 5832 5830 5829 5828 5826 5825 5824 5824 5823 5822 5822 5821 5820 5820 5819 5819 5818 5818 5818 5818
5876 5875 5874 5874 5872 5870 5869 5868 5867 5865 5863 5862 5860 5858 5856 5855 5853 5851 5849 5847 5845 5843 5841 5839 5837 5835 5832 5830 5828 5826 5824 5822 5821 5820 5819 5818 5817 5816 5815 5815 5814 5814 5813 5813 5812 5812 5811 5811 5811
5873 5872 5871 5870 5869 5867 5865 5864 5863 5860 5859 5857 5855 5853 5852 5850 5848 5845 5844 5842 5840 5837 5835 5833 5831 5829 5826 5824 5822 5820 5818 5816 5814 5813 5812 5810 5809 5809 5808 5808 5808 5807 5807 5806 5806 5805 5805 5804 5804
5870 5869 5868 5867 5865 5863 5861 5860 5858 5856 5854 5852 5850 5848 5846 5844 5842 5840 5838 5836 5834 5831 5829 5827 5825 5823 5820 5818 5815 5813 5811 5809 5808 5806 5804 5803 5802 5802 5801 5801 5800 5800 5800 5799 5799 5798 5797 5797 5796
5867 5865 5864 5863 5861 5859 5857 5856 5854 5851 5849 5847 5845 5843 5840 5839 5836 5835 5833 5830 5828 5826 5824 5822 5820 5817 5815 5812 5809 5807 5805 5802 5800 5798 5796 5795 5794 5794 5793 5793 5792 5792 5792 5792 5791 5790 5790 5789 5787
5863 5862 5860 5858 5857 5855 5853 5852 5850 5847 5845 5842 5840 5837 5835 5833 5831 5829 5827 5825 5822 5819 5817 5816 5814 5811 5809 5806 5803 5801 5799 5797 5794 5792 5789 5788 5787 5786 5785 5785 5784 5785 5784 5784 5783 5783 5782 5781 5780
5860 5858 5856 5854 5852 5850 5849 5846 5846 5843 5840 5837 5835 5832 5829 5828 5825 5823 5821 5819 5816 5814 5812 5809 5807 5805 5802 5799 5797 5794 5792 5789 5787 5784 5782 5780 5779 5778 5777 5776 5776 5776 5776 5776 5776 5774 5774 5774 5773
5855 5854 5851 5849 5847 5845 5844 5841 5840 5837 5835 5832 5829 5827 5824 5822 5820 5818 5816 5813 5810 5808 5805 5803 5801 5798 5795 5793 5790 5787 5784 5782 5779 5776 5774 5773 5772 5771 5769 5769 5769 5769 5768 5768 5767 5767 5766 5766 5765
5851 5849 5847 5845 5843 5841 5839 5837 5835 5832 5829 5827 5824 5822 5819 5817 5814 5812 5810 5807 5804 5801 5799 5796 5793 5791 5788 5785 5782 5779 5777 5774 5772 5769 5768 5766 5765 5764 5762 5762 5761 5761 5761 5760 5760 5759 5759 5758 5758
5847 5845 5842 5839 5838 5836 5834 5831 5830 5827 5824 5821 5819 5816 5813 5810 5808 5806 5803 5800 5797 5794 5791 5788 5786 5783 5780 5778 5775 5772 5770 5767 5765 5763 5761 5759 5758 5757 5755 5754 5754 5753 5753 5753 5752 5752 5751 5751 5750
5843 5841 5838 5834 5832 5830 5829 5826 5825 5822 5819 5816 5813 5810 5807 5804 5801 5799 5797 5794 5790 5787 5784 5781 5778 5775 5773 5770 5768 5765 5763 5761 5759 5757 5754 5752 5751 5750 5748 5747 5746 5746 5746 5745 5745 5744 5744 5743 5743
5838 5836 5833 5829 5826 5824 5823 5821 5820 5816 5813 5810 5808 5805 5801 5797 5795 5793 5790 5787 5784 5780 5776 5773 5770 5768 5766 5763 5761 5758 5756 5755 5753 5750 5748 5746 5744 5743 5742 5741 5739 5739 5738 5738 5738 5737 5737 5736 5735
5834 5830 5827 5824 5820 5817 5816 5815 5814 5811 5808 5805 5802 5799 5796 5792 5789 5787 5784 5781 5778 5774 5770 5767 5764 5762 5760 5758 5755 5753 5751 5749 5746 5744 5743 5740 5738 5736 5736 5734 5733 5733 5732 5731 5731 5730 5730 5729 5729
5829 5826 5822 5818 5815 5812 5809 5811 5808 5805 5801 5799 5796 5793 5790 5787 5784 5782 5779 5775 5772 5769 5766 5762 5760 5757 5755 5753 5750 5748 5745 5742 5740 5738 5736 5734 5733 5731 5730 5729 5728 5727 5726 5725 5725 5724 5723 5723 5722
5822 5819 5816 5813 5810 5806 5803 5805 5802 5799 5795 5793 5790 5788 5785 5782 5779 5776 5773 5770 5767 5764 5761 5758 5755 5753 5751 5748 5745 5742 5738 5735 5734 5732 5730 5729 5727 5726 5725 5724 5722 5721 5721 5720 5719 5718 5717 5717 5716